View from above orbital plane
|
View from above satellite
|
Ground track
|
The orbit data is extracted from the following two-line orbital elements,
1 25989U 99066A 19053.91606422 -.00000040 00000-0 00000+0 0 9995
2 25989 70.7979 336.5315 7743262 95.3785 0.4658 0.50139698 23973
Epoch (UTC): | 22 February 2019 21:59:07 |
Eccentricity: | 0.7743262 |
inclination: | 70.7979° |
perigee height: | 8726 km |
apogee height: | 112374 km |
right ascension of ascending node: | 336.5315° |
argument of perigee: | 95.3785° |
revolutions per day: | 0.50139698 |
mean anomaly at epoch: | 0.4658° |
orbit number at epoch: | 2397 |
The dashed part of the orbit path shows where the satellite is in the earth's shadow,
|
|